Manhattan, KS

11:33 AM CST on February 23, 2018 (GMT -0600)
Manhattan Regional

Weather History for KMHK - April, 2014

Change the Weather History Date:

Sunday, April 27, 2014

  Actual Average Record
Temperature  
Mean Temperature 68 °F 58 °F  
Max Temperature 78 °F 70 °F 87 °F (2001)
Min Temperature 58 °F 45 °F 28 °F (2005)
Degree Days  
Heating Degree Days 0 8  
Month to date heating degree days 295 323  
Since 1 July heating degree days 5576 5159  
Cooling Degree Days 3 1  
Month to date cooling degree days 30 16  
Year to date cooling degree days 30 18  
Growing Degree Days 17 (Base 50)    
Moisture  
Dew Point 58 °F    
Average Humidity 59    
Maximum Humidity 90    
Minimum Humidity 28    
Precipitation  
Precipitation 0.61 in 0.13 in 0.83 in (1999)
Month to date precipitation 1.56 2.37  
Year to date precipitation 3.31 6.29  
Sea Level Pressure  
Sea Level Pressure 29.33 in    
Wind  
Wind Speed 14 mph (South)    
Max Wind Speed 30 mph    
Max Gust Speed 38 mph    
Visibility 7 miles    
Events Fog , Rain , Thunderstorm    
T = Trace of Precipitation, MM = Missing Value Source: NWS Daily Summary

Daily Weather History Graph

Daily Weather History Graph

Search for Another Location

Airport or City:

Trip Planner

Search our weather history database for the weather conditions in past years. The results will help you decide how hot, cold, wet, or windy it might be!

Date:

Astronomy

Apr. 27, 2014 Rise Set
Actual Time 6:33 AM CDT 8:15 PM CDT
Civil Twilight 6:04 AM CDT 8:44 PM CDT
Nautical Twilight 5:30 AM CDT 9:19 PM CDT
Astronomical Twilight 4:53 AM CDT 9:56 PM CDT
Moon 5:33 AM CDT (4/27) 6:51 PM CDT (4/27)
Length of Visible Light 14h 39m
Length of Day
13h 42m
Waning Crescent, 3% of the Moon is Illuminated
Apr 27
Waning Crescent
Apr 29
New
May 6
First Quarter
May 14
Full
May 21
Last Quarter

Hourly Weather History & Observations

Time (CDT) Temp. Dew Point Humidity Pressure Visibility Wind Dir Wind Speed Gust Speed Precip Events Conditions
12:52 AM 73.9 °F 62.1 °F 66% 29.42 in 10.0 mi South 16.1 mph 31.1 mph N/A   Clear
1:52 AM 73.9 °F 63.0 °F 68% 29.42 in 10.0 mi South 21.9 mph 33.4 mph N/A   Clear
2:52 AM 72.0 °F 64.0 °F 76% 29.40 in 9.0 mi SSW 13.8 mph 25.3 mph N/A   Clear
3:50 AM 71.6 °F 64.4 °F 78% 29.42 in 8.0 mi South 13.8 mph 25.3 mph N/A   Mostly Cloudy
3:52 AM 72.0 °F 64.0 °F 76% 29.39 in 8.0 mi South 12.7 mph - N/A   Overcast
4:21 AM 72.0 °F 64.9 °F 78% 29.41 in 8.0 mi South 16.1 mph 28.8 mph 0.00 in Rain , Thunderstorm Light Rain
4:31 AM 72.0 °F 64.9 °F 78% 29.41 in 8.0 mi South 19.6 mph 34.5 mph 0.00 in Thunderstorm Mostly Cloudy
4:38 AM 71.1 °F 66.0 °F 84% 29.40 in 7.0 mi South 24.2 mph 33.4 mph 0.00 in Rain , Thunderstorm Light Thunderstorms and Rain
4:52 AM 70.0 °F 66.0 °F 87% 29.38 in 7.0 mi South 25.3 mph 35.7 mph 0.00 in Thunderstorm Thunderstorm
5:23 AM 71.1 °F 64.0 °F 78% 29.41 in 10.0 mi SE 21.9 mph 31.1 mph N/A Thunderstorm Mostly Cloudy
5:33 AM 71.1 °F 64.0 °F 78% 29.40 in 10.0 mi ESE 16.1 mph 29.9 mph N/A   Mostly Cloudy
5:52 AM 70.0 °F 64.0 °F 81% 29.37 in 8.0 mi SSE 11.5 mph - 0.00 in Rain Light Rain
6:00 AM 69.1 °F 64.9 °F 87% 29.38 in 9.0 mi SE 10.4 mph - 0.00 in Rain , Thunderstorm Light Thunderstorms and Rain
6:11 AM 69.1 °F 64.9 °F 87% 29.38 in 7.0 mi SE 8.1 mph - 0.00 in   Scattered Clouds
6:52 AM 70.0 °F 64.9 °F 84% 29.35 in 7.0 mi SSW 6.9 mph - 0.00 in Thunderstorm Scattered Clouds
7:06 AM 70.0 °F 64.9 °F 84% 29.36 in 6.0 mi South 8.1 mph - 0.01 in Rain , Thunderstorm Light Thunderstorms and Rain
7:12 AM 68.0 °F 64.9 °F 90% 29.38 in 2.0 mi SW 24.2 mph 33.4 mph 0.07 in Rain , Thunderstorm Thunderstorms and Rain
7:18 AM 64.0 °F 63.0 °F 96% 29.38 in 0.8 mi SW 21.9 mph 33.4 mph 0.17 in Rain , Thunderstorm Heavy Thunderstorms and Rain
7:26 AM 64.9 °F 61.0 °F 87% 29.37 in 0.5 mi SSE 10.4 mph 36.8 mph 0.34 in Fog , Rain , Thunderstorm Heavy Thunderstorms and Rain
7:31 AM 66.0 °F 64.0 °F 93% 29.35 in 2.0 mi Variable 5.8 mph 18.4 mph 0.36 in Rain , Thunderstorm Thunderstorms and Rain
7:35 AM 64.9 °F 63.0 °F 93% 29.37 in 4.0 mi SW 13.8 mph 18.4 mph 0.39 in Rain , Thunderstorm Light Thunderstorms and Rain
7:40 AM 64.0 °F 63.0 °F 96% 29.37 in 2.0 mi SW 9.2 mph - 0.46 in Rain , Thunderstorm Heavy Thunderstorms and Rain
7:45 AM 63.0 °F 62.1 °F 97% 29.37 in 1.8 mi West 6.9 mph - 0.50 in Rain , Thunderstorm Heavy Thunderstorms and Rain
7:52 AM 62.1 °F 62.1 °F 100% 29.34 in 1.5 mi West 5.8 mph - 0.57 in Rain , Thunderstorm Heavy Thunderstorms and Rain
8:05 AM 62.1 °F 61.0 °F 96% 29.36 in 2.0 mi Calm Calm - 0.13 in Rain , Thunderstorm Thunderstorms and Rain
9:48 AM 57.9 °F 57.0 °F 97% 29.37 in 1.5 mi East 11.5 mph - 0.03 in Rain , Thunderstorm Rain
9:51 AM 59.0 °F 57.0 °F 93% 29.40 in 4.0 mi East 9.2 mph - 0.00 in Rain , Thunderstorm Light Rain
10:27 AM 63.0 °F 60.1 °F 90% 29.46 in 2.0 mi SSE 15.0 mph 23.0 mph 0.07 in Rain , Thunderstorm Heavy Thunderstorms and Rain
10:35 AM 62.1 °F 59.0 °F 90% 29.44 in 1.8 mi SSE 16.1 mph 27.6 mph 0.10 in Rain , Thunderstorm Thunderstorms and Rain
10:42 AM 62.1 °F 59.0 °F 90% 29.40 in 3.0 mi ESE 16.1 mph - 0.11 in Rain Rain
10:52 AM 60.8 °F 57.2 °F 88% 29.35 in 4.0 mi East 21.9 mph 28.8 mph N/A Rain Rain
10:59 AM 61.0 °F 57.9 °F 90% 29.29 in 7.0 mi East 20.7 mph 31.1 mph 0.01 in Rain Light Rain
11:52 AM 63.0 °F 59.0 °F 87% 29.25 in 10.0 mi East 8.1 mph - 0.01 in   Clear
12:52 PM 69.1 °F 57.9 °F 68% 29.27 in 10.0 mi South 21.9 mph 33.4 mph N/A   Clear
1:52 PM 71.1 °F 61.0 °F 70% 29.23 in 10.0 mi SSE 17.3 mph 35.7 mph N/A   Clear
2:52 PM 75.0 °F 57.0 °F 53% 29.20 in 10.0 mi South 20.7 mph 33.4 mph N/A   Clear
3:52 PM 75.9 °F 54.0 °F 46% 29.19 in 10.0 mi South 19.6 mph 36.8 mph N/A   Scattered Clouds
4:52 PM 77.0 °F 41.0 °F 28% 29.18 in 10.0 mi South 18.4 mph 34.5 mph N/A   Clear
5:52 PM 77.0 °F 44.1 °F 31% 29.17 in 10.0 mi South 21.9 mph 27.6 mph N/A   Clear
6:52 PM 75.9 °F 42.1 °F 30% 29.18 in 10.0 mi South 15.0 mph 25.3 mph N/A   Clear
7:52 PM 72.0 °F 45.0 °F 38% 29.22 in 6.0 mi SSW 17.3 mph 25.3 mph N/A   Haze
8:41 PM 69.1 °F 46.9 °F 45% 29.25 in 7.0 mi SSW 13.8 mph - N/A   Overcast
8:52 PM 68.0 °F 46.0 °F 45% 29.23 in 8.0 mi SSW 12.7 mph - N/A   Overcast
9:29 PM 66.9 °F 50.0 °F 54% 29.27 in 9.0 mi SSW 8.1 mph - N/A   Overcast
9:52 PM 64.4 °F 46.4 °F 52% 29.27 in 10.0 mi SW 9.2 mph - N/A   Overcast
10:25 PM 64.9 °F 46.9 °F 52% 29.27 in 10.0 mi SSW 8.1 mph - N/A   Overcast
10:52 PM 64.0 °F 46.0 °F 52% 29.27 in 9.0 mi SSW 9.2 mph - N/A   Overcast
11:52 PM 62.6 °F 44.6 °F 52% 29.29 in 4.0 mi South 8.1 mph - N/A   Haze